Flag for Canada Weather past 2 weeks in Kitchener, Ontario, Canada

Now
23 °F

Light snow. Overcast.


Feels Like: 10 °F
Forecast: 15 / 29 °F
Wind: 16 mph from Northwest

Location: Waterloo Well

Current Time: Mar 27, 2015 at 3:53:44 PM

Latest Report: Mar 27, 2015 at 3:00 PM


Visibility: 9 mi

Pressure: 29.94 "Hg

Humidity: 68%

Dew point: 14 °F

Location of KitchenerLocation

Historic Weather in Kitchener — Graph

°F

Kitchener temperature yesterday

Maximum temperature yesterday: 37 °F (at 12:00 AM)
Minimum temperature yesterday: 34 °F (at 8:00 PM)
Average temperature yesterday: 36 °F

Past Weeks' High & Low Weather Summary

 TemperatureHumidityPressure
High77 °F (Mar 24, 1:00 PM)100% (Mar 14, 4:01 AM)30.64 "Hg (Mar 14, 4:01 AM)
Low14 °F (Mar 24, 4:00 AM)5% (Mar 24, 1:00 PM)29.67 "Hg (Mar 17, 2:00 AM)
Average33 °F72%30.05 "Hg
* Reported Mar 12 2:00 PM — Mar 27 2:00 PM, Kitchener, Weather by CustomWeather, © 2015

Note: Actual official high and low records may vary slightly from our data, if they occured in-between our weather recording intervals... More about our weather records

Advertising

Kitchener weather history for previous 24 hours

 ConditionsComfort  
Time TempWeatherWind HumidityBarometerVisibility
2:00 PM
Fri, Mar 27
23 °FLight snow. Overcast.17 mph68%29.95 "Hg9 mi
1:00 PM23 °FOvercast.15 mph68%29.94 "Hg9 mi
12:00 PM23 °FLight snow. Overcast.14 mph68%29.93 "Hg9 mi
11:49 AM23 °FLight snow. Mostly cloudy.15 mph74%29.93 "Hg9 mi
11:04 AM23 °FMostly cloudy.12 mph74%29.93 "Hg9 mi
10:56 AM23 °FMore clouds than sun.15 mph74%29.93 "Hg9 mi
10:01 AM23 °FOvercast.14 mph86%29.90 "Hg9 mi
9:03 AM27 °FOvercast.13 mph86%29.88 "Hg9 mi
8:00 AM27 °FLight snow. Overcast.12 mph86%29.87 "Hg9 mi
7:00 AM27 °FLight snow. Overcast.17 mph86%29.87 "Hg9 mi
6:00 AM27 °FOvercast.14 mph86%29.87 "Hg9 mi
5:54 AM27 °FOvercast.14 mph86%29.87 "Hg9 mi
5:00 AM27 °FOvercast.13 mph86%29.87 "Hg9 mi
4:00 AM28 °FOvercast.14 mph86%29.85 "Hg9 mi
3:00 AM28 °FOvercast.10 mph86%29.85 "Hg9 mi
2:58 AM28 °FOvercast.10 mph86%29.85 "Hg9 mi
2:00 AM30 °FLight snow. Overcast.14 mph86%29.85 "Hg9 mi
1:00 AM32 °FLight snow. Mostly cloudy.10 mph87%29.84 "Hg9 mi
12:57 AM32 °FLight snow. Overcast.10 mph87%29.84 "Hg9 mi
12:02 AM32 °FLight mixture of precip. Overcast.9 mph93%29.84 "Hg8 mi
11:00 PM
Thu, Mar 26
34 °FLight rain. Mostly cloudy.13 mph81%29.85 "Hg9 mi
10:00 PM34 °FMostly cloudy.7 mph81%29.86 "Hg9 mi
9:00 PM34 °FOvercast.9 mph81%29.85 "Hg9 mi
8:00 PM34 °FMore clouds than sun.7 mph81%29.84 "Hg9 mi
7:00 PM36 °FMore clouds than sun.13 mph75%29.82 "Hg9 mi
6:53 PM36 °FCloudy.10 mph81%29.82 "Hg9 mi
6:00 PM37 °FCloudy.9 mph75%29.81 "Hg9 mi
5:53 PM37 °FCloudy.9 mph75%29.80 "Hg9 mi
5:02 PM37 °FMostly cloudy.12 mph75%29.79 "Hg9 mi
4:00 PM37 °FMostly cloudy.10 mph75%29.78 "Hg9 mi
3:53 PM37 °FOvercast.9 mph81%29.79 "Hg9 mi
3:00 PM37 °FMostly cloudy.13 mph75%29.79 "Hg9 mi
Weather by CustomWeather, © 2015

See weather overviewHow to use our weather pages